Location: Cantaing
(50.1487°N, 3.1675°E)
Time: 05:46:16
(UTC+00:00)

USA 32 - Pass Details

Date: 14 January 2026
Orbit: 774 x 780 km, 85.0° (Epoch: 10 February)

Event Time Altitude Azimuth Distance (km) Brightness Sun altitude
Rises 06:42:37 0° 206° (SSW) 3,254 7.2 -9.1°
Reaches altitude 10° 06:45:05 10° 214° (SSW) 2,331 6.4 -8.8°
Maximum altitude 06:50:01 41° 284° (WNW) 1,129 4.4 -8.1°
Drops below altitude 10° 06:54:58 10° 354° (N) 2,346 6.2 -7.3°
Sets 06:57:29 0° 2° (N) 3,278 7.0 -7.0°
